This is the latest recevied weather packets stored in our database for station/object K1NOT-WX. If no packets are shown the sender has not sent any weather packets the latest 10 day(s).
| Time | Temp. | Humidity | Pressure | Rain* | Wind** | Luminosity | Snow |
|---|---|---|---|---|---|---|---|
| 1777857132 | 23.89° C | 39% | 1001.4 hPa | 0 mm | - | - | - |
| 1777856232 | 23.89° C | 37% | 1001.4 hPa | 0 mm | - | - | - |
| 1777855332 | 23.89° C | 38% | 1001.4 hPa | 0 mm | - | - | - |
| 1777854432 | 23.89° C | 40% | 1001.7 hPa | 0 mm | - | - | - |
| 1777853533 | 23.89° C | 40% | 1001.4 hPa | 0 mm | - | - | - |
| 1777852633 | 23.89° C | 42% | 1001.7 hPa | 0 mm | - | - | - |
| 1777851733 | 23.89° C | 43% | 1002 hPa | 0 mm | - | - | - |
| 1777850833 | 23.89° C | 43% | 1002.4 hPa | 0 mm | - | - | - |
| 1777849933 | 23.33° C | 44% | 1002.4 hPa | 0 mm | - | - | - |
| 1777849033 | 23.89° C | 43% | 1002.4 hPa | 0 mm | - | - | - |
| 1777848133 | 23.33° C | 44% | 1002.7 hPa | 0 mm | - | - | - |
| 1777847233 | 24.44° C | 44% | 1003 hPa | 0 mm | - | - | - |
| 1777846333 | 23.33° C | 44% | 1003 hPa | 0 mm | - | - | - |
| 1777845433 | 23.33° C | 43% | 1003 hPa | 0 mm | - | - | - |
| 1777844533 | 23.33° C | 48% | 1003 hPa | 0 mm | - | - | - |
| 1777843633 | 23.33° C | 48% | 1003.4 hPa | 0 mm | - | - | - |
| 1777842733 | 23.89° C | 46% | 1003.7 hPa | 0 mm | - | - | - |
| 1777841833 | 22.78° C | 47% | 1003.4 hPa | 0 mm | - | - | - |
| 1777840933 | 22.78° C | 48% | 1003.7 hPa | 0 mm | - | - | - |
| 1777840033 | 22.22° C | 44% | 1003.7 hPa | 0 mm | - | - | - |
| 1777839133 | 22.22° C | 42% | 1004.4 hPa | 0 mm | - | - | - |
| 1777838233 | 22.78° C | 44% | 1004.4 hPa | 0 mm | - | - | - |
| 1777837333 | 22.78° C | 50% | 1004.7 hPa | 0 mm | - | - | - |
| 1777836433 | 22.78° C | 49% | 1004.7 hPa | 0 mm | - | - | - |
| 1777835533 | 22.22° C | 51% | 1004.7 hPa | 0 mm | - | - | - |
* Rain latest hour (hover to see other rain measurements)
** Current wind speed in m/s (hover to see current wind gust speed)